TimeMST,TemperatureF,Dew PointF,Humidity,Sea Level PressureIn,VisibilityMPH,Wind Direction,Wind SpeedMPH,Gust SpeedMPH,PrecipitationIn,Events,Conditions,WindDirDegrees,DateUTC
12:15 AM,35.6,3.2,26,30.32,10.0,NW,4.6,-,N/A,,Clear,320,2013-03-01 07:15:00
12:35 AM,32.0,3.2,30,30.33,10.0,Calm,Calm,-,N/A,,Clear,0,2013-03-01 07:35:00
12:55 AM,32.0,3.2,30,30.32,10.0,WNW,8.1,-,N/A,,Clear,300,2013-03-01 07:55:00
1:15 AM,32.0,3.2,30,30.32,10.0,West,9.2,-,N/A,,Clear,280,2013-03-01 08:15:00
1:35 AM,32.0,3.2,30,30.32,10.0,West,10.4,-,N/A,,Clear,280,2013-03-01 08:35:00
1:55 AM,32.0,3.2,30,30.32,10.0,Calm,Calm,-,N/A,,Clear,0,2013-03-01 08:55:00
2:15 AM,28.4,3.2,34,30.32,10.0,Calm,Calm,-,N/A,,Clear,0,2013-03-01 09:15:00
2:35 AM,26.6,1.4,34,30.31,10.0,Calm,Calm,-,N/A,,Clear,0,2013-03-01 09:35:00
2:55 AM,28.4,3.2,34,30.31,10.0,Calm,Calm,-,N/A,,Clear,0,2013-03-01 09:55:00
3:15 AM,26.6,1.4,34,30.30,10.0,NW,5.8,-,N/A,,Clear,310,2013-03-01 10:15:00
3:35 AM,26.6,3.2,37,30.31,10.0,WNW,6.9,-,N/A,,Clear,290,2013-03-01 10:35:00
3:55 AM,26.6,3.2,37,30.30,10.0,West,6.9,-,N/A,,Clear,280,2013-03-01 10:55:00
4:15 AM,28.4,3.2,34,30.30,10.0,WNW,6.9,-,N/A,,Clear,290,2013-03-01 11:15:00
4:35 AM,30.2,3.2,32,30.31,10.0,NW,4.6,-,N/A,,Clear,320,2013-03-01 11:35:00
5:15 AM,30.2,3.2,32,30.32,10.0,West,9.2,-,N/A,,Clear,270,2013-03-01 12:15:00
5:35 AM,30.2,3.2,32,30.32,10.0,West,9.2,-,N/A,,Clear,260,2013-03-01 12:35:00
5:55 AM,28.4,3.2,34,30.32,10.0,Calm,Calm,-,N/A,,Clear,0,2013-03-01 12:55:00
6:15 AM,26.6,3.2,37,30.33,10.0,ENE,3.5,-,N/A,,Clear,60,2013-03-01 13:15:00
6:35 AM,21.2,1.4,42,30.33,10.0,ESE,4.6,-,N/A,,Clear,120,2013-03-01 13:35:00
6:55 AM,23.0,3.2,43,30.33,10.0,South,4.6,-,N/A,,Clear,170,2013-03-01 13:55:00
7:15 AM,26.6,3.2,37,30.34,10.0,SSW,5.8,-,N/A,,Clear,200,2013-03-01 14:15:00
7:35 AM,30.2,5.0,34,30.36,10.0,Calm,Calm,-,N/A,,Clear,0,2013-03-01 14:35:00
8:15 AM,35.6,5.0,28,30.37,10.0,Calm,Calm,-,N/A,,Clear,0,2013-03-01 15:15:00
8:35 AM,35.6,6.8,30,30.39,10.0,East,4.6,-,N/A,,Clear,90,2013-03-01 15:35:00
9:15 AM,42.8,8.6,25,30.38,10.0,Calm,Calm,-,N/A,,Clear,0,2013-03-01 16:15:00
9:35 AM,48.2,10.4,22,30.38,10.0,Calm,Calm,-,N/A,,Clear,0,2013-03-01 16:35:00
10:15 AM,51.8,10.4,19,30.37,10.0,Calm,Calm,-,N/A,,Clear,0,2013-03-01 17:15:00
10:35 AM,53.6,12.2,19,30.37,10.0,Calm,Calm,-,N/A,,Clear,0,2013-03-01 17:35:00
11:15 AM,55.4,12.2,18,30.36,10.0,Calm,Calm,-,N/A,,Clear,0,2013-03-01 18:15:00
11:35 AM,59.0,12.2,16,30.36,10.0,North,-9999.0,-,N/A,,Clear,0,2013-03-01 18:35:00
12:15 PM,59.0,12.2,16,30.34,10.0,Calm,Calm,-,N/A,,Clear,0,2013-03-01 19:15:00
12:35 PM,60.8,12.2,15,30.33,10.0,Calm,Calm,-,N/A,,Clear,0,2013-03-01 19:35:00
12:55 PM,62.6,12.2,14,30.32,10.0,South,3.5,-,N/A,,Clear,190,2013-03-01 19:55:00
1:15 PM,62.6,12.2,14,30.31,10.0,Calm,Calm,-,N/A,,Clear,0,2013-03-01 20:15:00
1:35 PM,62.6,14.0,15,30.30,10.0,North,-9999.0,-,N/A,,Clear,0,2013-03-01 20:35:00
2:15 PM,64.4,14.0,14,30.28,10.0,North,-9999.0,-,N/A,,Clear,0,2013-03-01 21:15:00
2:35 PM,64.4,14.0,14,30.27,10.0,WNW,4.6,-,N/A,,Clear,300,2013-03-01 21:35:00
2:55 PM,64.4,12.2,13,30.27,10.0,North,3.5,-,N/A,,Clear,360,2013-03-01 21:55:00
3:15 PM,64.4,14.0,14,30.26,10.0,NE,3.5,-,N/A,,Clear,50,2013-03-01 22:15:00
3:35 PM,66.2,14.0,13,30.26,10.0,Calm,Calm,-,N/A,,Clear,0,2013-03-01 22:35:00
3:55 PM,66.2,14.0,13,30.26,10.0,Calm,Calm,-,N/A,,Clear,0,2013-03-01 22:55:00
4:15 PM,66.2,14.0,13,30.26,10.0,Calm,Calm,-,N/A,,Clear,0,2013-03-01 23:15:00
4:35 PM,64.4,14.0,14,30.25,10.0,Calm,Calm,-,N/A,,Clear,0,2013-03-01 23:35:00
4:55 PM,64.4,14.0,14,30.25,10.0,Calm,Calm,-,N/A,,Clear,0,2013-03-01 23:55:00
5:15 PM,66.2,14.0,13,30.25,10.0,Calm,Calm,-,N/A,,Clear,0,2013-03-02 00:15:00
5:35 PM,64.4,14.0,14,30.27,10.0,South,3.5,-,N/A,,Clear,180,2013-03-02 00:35:00
5:55 PM,64.4,14.0,14,30.27,10.0,WSW,4.6,-,N/A,,Clear,240,2013-03-02 00:55:00
6:15 PM,60.8,14.0,16,30.27,10.0,SW,3.5,-,N/A,,Clear,230,2013-03-02 01:15:00
6:35 PM,55.4,12.2,18,30.28,10.0,WSW,5.8,-,N/A,,Clear,240,2013-03-02 01:35:00
6:55 PM,51.8,12.2,21,30.28,10.0,West,4.6,-,N/A,,Clear,260,2013-03-02 01:55:00
7:15 PM,51.8,12.2,21,30.29,10.0,West,10.4,-,N/A,,Clear,260,2013-03-02 02:15:00
7:35 PM,50.0,12.2,22,30.29,10.0,West,9.2,-,N/A,,Clear,270,2013-03-02 02:35:00
7:55 PM,50.0,12.2,22,30.29,10.0,West,9.2,-,N/A,,Clear,270,2013-03-02 02:55:00
8:15 PM,48.2,12.2,24,30.29,10.0,West,8.1,-,N/A,,Clear,270,2013-03-02 03:15:00
8:35 PM,48.2,14.0,25,30.29,10.0,West,8.1,-,N/A,,Clear,270,2013-03-02 03:35:00
8:55 PM,46.4,12.2,25,30.30,10.0,Calm,Calm,-,N/A,,Clear,0,2013-03-02 03:55:00
9:15 PM,44.6,12.2,27,30.30,10.0,Calm,Calm,-,N/A,,Clear,0,2013-03-02 04:15:00
9:35 PM,44.6,12.2,27,30.31,10.0,Calm,Calm,-,N/A,,Clear,0,2013-03-02 04:35:00
9:55 PM,42.8,12.2,29,30.31,10.0,Calm,Calm,-,N/A,,Clear,0,2013-03-02 04:55:00
10:35 PM,44.6,12.2,27,30.32,10.0,SSE,5.8,-,N/A,,Clear,160,2013-03-02 05:35:00
10:55 PM,41.0,12.2,31,30.32,10.0,SSW,6.9,-,N/A,,Clear,200,2013-03-02 05:55:00
11:15 PM,41.0,14.0,33,30.32,10.0,SSW,9.2,-,N/A,,Clear,210,2013-03-02 06:15:00
11:35 PM,41.0,14.0,33,30.33,10.0,SSW,5.8,-,N/A,,Clear,200,2013-03-02 06:35:00
11:55 PM,41.0,12.2,31,30.33,10.0,Calm,Calm,-,N/A,,Clear,0,2013-03-02 06:55:00